User: anonymous   Login
Location: Fontevrault
(47.1823°N, 0.0493°E)
Time: 22:11:59
(UTC+00:00)
Language:

Cosmos 1378 Rocket - Orbit

View from above orbital plane
View from above orbital plane
View from above satellite
View from above satellite

Ground track
Ground track

The orbit data is extracted from the following two-line orbital elements,

1 13272U 82059B   21266.11088932  .00000109  00000-0  99528-5 0  9996
2 13272  82.5081 114.2144 0018872  13.7058 346.4666 14.84768426123201
Epoch (UTC): 23 September 2021 02:39:40
Eccentricity: 0.0018872
inclination: 82.5081°
perigee height: 601 km
apogee height: 627 km
right ascension of ascending node: 114.2144°
argument of perigee: 13.7058°
revolutions per day: 14.84768426
mean anomaly at epoch: 346.4666°
orbit number at epoch: 12320

The dashed part of the orbit path shows where the satellite is in the earth's shadow,  

DLR